| time (UTC) | temp F | wind direction | speed knots | gust knots | rain 1hr in | rain 24hr in | rain mn in | humidity % | barometer mb |
| 20260507115051 | 41 | 0 | 0.9 | 2.6 | 0.00 | 0.09 | 0.00 | 99 | 1013.8 |
| 20260507114551 | 40 | 293 | 1.7 | 2.6 | 0.00 | 0.09 | 0.00 | 99 | 1013.6 |
| 20260507114050 | 40 | 344 | 1.7 | 2.6 | 0.00 | 0.10 | 0.00 | 99 | 1013.5 |
| 20260507113813 | 40 | 124 | 0.0 | 1.7 | 0.00 | 0.10 | 0.00 | 99 | 1013.4 |
| 20260507113051 | 40 | 222 | 1.7 | 1.7 | 0.00 | 0.11 | 0.00 | 99 | 1013.5 |
| 20260507112550 | 40 | 347 | 0.0 | 2.6 | 0.00 | 0.11 | 0.00 | 99 | 1013.5 |
| 20260507112050 | 40 | 299 | 1.7 | 2.6 | 0.00 | 0.11 | 0.00 | 99 | 1013.5 |
| 20260507111810 | 40 | 353 | 0.0 | 3.5 | 0.00 | 0.12 | 0.00 | 99 | 1013.3 |
| 20260507111050 | 40 | 292 | 0.9 | 3.5 | 0.00 | 0.12 | 0.00 | 99 | 1013.5 |
| 20260507110550 | 40 | 158 | 0.9 | 3.5 | 0.00 | 0.13 | 0.00 | 99 | 1013.2 |
| 20260507110049 | 40 | 154 | 1.7 | 3.5 | 0.00 | 0.13 | 0.00 | 99 | 1013.1 |
| 20260507105549 | 40 | 133 | 1.7 | 1.7 | 0.00 | 0.13 | 0.00 | 99 | 1013.2 |
| 20260507105049 | 40 | 23 | 1.7 | 2.6 | 0.00 | 0.14 | 0.00 | 99 | 1013.2 |
| 20260507104548 | 39 | 5 | 0.9 | 2.6 | 0.00 | 0.14 | 0.00 | 99 | 1013.2 |
| 20260507104049 | 39 | 37 | 0.0 | 1.7 | 0.00 | 0.15 | 0.00 | 95 | 1013.2 |
| 20260507103549 | 39 | 355 | 1.7 | 1.7 | 0.00 | 0.15 | 0.00 | 94 | 1013.0 |
| 20260507103047 | 39 | 40 | 0.0 | 3.5 | 0.00 | 0.15 | 0.00 | 94 | 1013.0 |
| 20260507103038 | 38 | 52 | 0.9 | 3.5 | 0.00 | 0.16 | 0.00 | 94 | 1013.1 |
| 20260507102047 | 38 | 338 | 1.7 | 4.3 | 0.00 | 0.16 | 0.00 | 95 | 1013.1 |
| 20260507101547 | 38 | 344 | 1.7 | 4.3 | 0.00 | 0.17 | 0.00 | 98 | 1013.0 |
| 20260507101047 | 38 | 341 | 0.0 | 1.7 | 0.00 | 0.17 | 0.00 | 99 | 1013.1 |
| 20260507100547 | 38 | 18 | 1.7 | 1.7 | 0.00 | 0.18 | 0.00 | 98 | 1013.0 |
| 20260507100046 | 38 | 23 | 0.0 | 1.7 | 0.00 | 0.18 | 0.00 | 99 | 1013.1 |
| 20260507095546 | 38 | 312 | 1.7 | 2.6 | 0.00 | 0.19 | 0.00 | 99 | 1012.8 |
| 20260507095306 | 38 | 200 | 0.0 | 2.6 | 0.00 | 0.20 | 0.00 | 99 | 1012.8 |
| 20260507094547 | 38 | 3 | 1.7 | 1.7 | 0.00 | 0.20 | 0.00 | 99 | 1012.9 |
| 20260507094312 | 38 | 159 | 0.9 | 1.7 | 0.00 | 0.21 | 0.00 | 92 | 1012.9 |
| 20260507093815 | 38 | 183 | 1.7 | 2.6 | 0.00 | 0.22 | 0.00 | 93 | 1013.0 |
| 20260507093045 | 38 | 218 | 0.0 | 2.6 | 0.00 | 0.23 | 0.00 | 93 | 1012.9 |
| 20260507092545 | 38 | 207 | 0.0 | 2.6 | 0.00 | 0.24 | 0.00 | 95 | 1012.6 |
| 20260507092045 | 38 | 179 | 1.7 | 2.6 | 0.00 | 0.24 | 0.00 | 99 | 1012.8 |
| 20260507091545 | 38 | 180 | 1.7 | 2.6 | 0.00 | 0.25 | 0.00 | 98 | 1013.0 |
| 20260507091044 | 38 | 200 | 1.7 | 2.6 | 0.00 | 0.26 | 0.00 | 98 | 1013.0 |
| 20260507090544 | 38 | 144 | 1.7 | 2.6 | 0.00 | 0.28 | 0.00 | 99 | 1013.0 |
| 20260507090044 | 38 | 235 | 0.0 | 2.6 | 0.00 | 0.29 | 0.00 | 99 | 1013.0 |
| 20260507085808 | 38 | 175 | 1.7 | 2.6 | 0.00 | 0.29 | 0.00 | 98 | 1012.8 |
| 20260507085043 | 38 | 161 | 0.9 | 2.6 | 0.00 | 0.30 | 0.00 | 99 | 1012.9 |
| 20260507084543 | 37 | 160 | 0.0 | 0.9 | 0.00 | 0.30 | 0.00 | 91 | 1013.1 |
| 20260507084043 | 37 | 147 | 0.0 | 0.9 | 0.00 | 0.31 | 0.00 | 90 | 1012.9 |
| 20260507083544 | 37 | 147 | 0.0 | 1.7 | 0.00 | 0.31 | 0.00 | 92 | 1013.0 |
| 20260507083043 | 38 | 230 | 0.0 | 1.7 | 0.00 | 0.31 | 0.00 | 94 | 1012.9 |
| 20260507082542 | 37 | 303 | 0.9 | 1.7 | 0.00 | 0.32 | 0.00 | 99 | 1013.0 |
| 20260507082042 | 38 | 135 | 0.0 | 1.7 | 0.00 | 0.32 | 0.00 | 99 | 1012.9 |
| 20260507081542 | 38 | 230 | 0.0 | 1.7 | 0.00 | 0.32 | 0.00 | 99 | 1012.8 |
| 20260507081042 | 38 | 252 | 0.0 | 1.7 | 0.00 | 0.33 | 0.00 | 94 | 1013.0 |
| 20260507080542 | 38 | 95 | 0.9 | 1.7 | 0.00 | 0.33 | 0.00 | 99 | 1012.9 |
| 20260507080306 | 38 | 120 | 0.0 | 0.9 | 0.00 | 0.33 | 0.00 | 92 | 1012.8 |
| 20260507075542 | 38 | 296 | 0.0 | 0.0 | 0.00 | 0.34 | 0.00 | 92 | 1012.8 |
| 20260507075042 | 38 | 296 | 0.0 | 1.7 | 0.00 | 0.35 | 0.00 | 93 | 1013.0 |
| 20260507074749 | 38 | 307 | 0.0 | 1.7 | 0.00 | 0.35 | 0.00 | 99 | 1013.0 |
| 20260507074639 | 38 | 296 | 0.0 | 1.7 | 0.00 | 0.35 | 0.00 | 95 | 1012.6 |
| 20260507073541 | 38 | 124 | 0.0 | 1.7 | 0.00 | 0.35 | 0.00 | 98 | 1012.5 |
| 20260507073259 | 38 | 124 | 0.0 | 1.7 | 0.00 | 0.36 | 0.00 | 98 | 1012.8 |
| 20260507072800 | 39 | 149 | 1.7 | 1.7 | 0.00 | 0.37 | 0.00 | 99 | 1012.9 |
| 20260507072040 | 39 | 145 | 1.7 | 1.7 | 0.00 | 0.37 | 0.00 | 98 | 1013.0 |
| 20260507071540 | 39 | 129 | 0.9 | 0.9 | 0.00 | 0.39 | 0.00 | 93 | 1012.9 |
| 20260507071039 | 39 | 129 | 0.0 | 0.0 | 0.00 | 0.40 | 0.00 | 93 | 1013.0 |
| 20260507070540 | 39 | 129 | 0.0 | 0.0 | 0.00 | 0.41 | 0.00 | 94 | 1013.0 |
| 20260507070040 | 40 | 129 | 0.0 | 0.9 | 0.00 | 0.43 | 0.00 | 99 | 1013.2 |
| 20260507065539 | 40 | 130 | 0.0 | 0.9 | 0.00 | 0.44 | 0.00 | 98 | 1013.1 |
| 20260507065039 | 40 | 157 | 0.0 | 0.9 | 0.00 | 0.44 | 0.00 | 98 | 1013.1 |
| 20260507064539 | 40 | 164 | 0.0 | 0.9 | 0.00 | 0.45 | 0.00 | 97 | 1013.3 |
| 20260507064038 | 40 | 173 | 0.0 | 1.7 | 0.00 | 0.46 | 0.00 | 97 | 1013.2 |
| 20260507063538 | 41 | 193 | 0.0 | 1.7 | 0.00 | 0.48 | 0.00 | 97 | 1013.2 |
| 20260507063258 | 41 | 161 | 0.0 | 1.7 | 0.00 | 0.48 | 0.00 | 97 | 1013.1 |
| 20260507062538 | 41 | 189 | 0.9 | 2.6 | 0.00 | 0.48 | 0.00 | 97 | 1013.0 |
| 20260507062037 | 41 | 197 | 0.9 | 2.6 | 0.00 | 0.49 | 0.00 | 97 | 1013.1 |
| 20260507061537 | 41 | 226 | 1.7 | 2.6 | 0.00 | 0.50 | 0.00 | 97 | 1013.2 |
| 20260507061037 | 41 | 170 | 0.9 | 2.6 | 0.00 | 0.50 | 0.00 | 97 | 1013.0 |
| 20260507060537 | 41 | 189 | 2.6 | 2.6 | 0.00 | 0.52 | 0.00 | 97 | 1013.4 |
| 20260507060037 | 41 | 212 | 0.9 | 1.7 | 0.00 | 0.52 | 0.00 | 97 | 1013.3 |
| 20260507055537 | 41 | 212 | 0.0 | 1.7 | 0.00 | 0.53 | 0.00 | 96 | 1013.2 |
| 20260507055037 | 41 | 151 | 0.9 | 1.7 | 0.00 | 0.54 | 0.00 | 96 | 1013.1 |
| 20260507054536 | 41 | 125 | 0.0 | 1.7 | 0.00 | 0.55 | 0.00 | 96 | 1013.3 |
| 20260507054036 | 41 | 129 | 0.9 | 1.7 | 0.00 | 0.56 | 0.00 | 95 | 1013.4 |
| 20260507053536 | 42 | 130 | 0.0 | 1.7 | 0.00 | 0.58 | 0.00 | 95 | 1013.6 |
| 20260507053036 | 42 | 212 | 0.0 | 1.7 | 0.00 | 0.60 | 0.00 | 95 | 1013.8 |
| 20260507052535 | 42 | 175 | 0.9 | 1.7 | 0.00 | 0.62 | 0.00 | 95 | 1013.9 |
| 20260507052035 | 42 | 191 | 1.7 | 1.7 | 0.00 | 0.63 | 0.00 | 95 | 1013.7 |
| 20260507051535 | 42 | 113 | 0.0 | 2.6 | 0.00 | 0.64 | 0.00 | 94 | 1013.6 |
| 20260507051252 | 42 | 276 | 0.0 | 2.6 | 0.00 | 0.65 | 0.00 | 94 | 1013.9 |
| 20260507050535 | 42 | 179 | 2.6 | 3.5 | 0.00 | 0.65 | 0.00 | 94 | 1013.9 |
| 20260507050035 | 42 | 183 | 0.9 | 3.5 | 0.00 | 0.66 | 0.00 | 94 | 1013.8 |
| 20260507045534 | 42 | 160 | 0.9 | 3.5 | 0.00 | 0.67 | 0.00 | 94 | 1013.8 |
| 20260507045255 | 42 | 102 | 1.7 | 2.6 | 0.00 | 0.67 | 0.00 | 94 | 1013.9 |
| 20260507044756 | 42 | 224 | 0.9 | 2.6 | 0.00 | 0.68 | 0.00 | 94 | 1013.8 |
| 20260507044250 | 42 | 141 | 0.0 | 2.6 | 0.00 | 0.68 | 0.00 | 94 | 1014.0 |
| 20260507043533 | 42 | 291 | 0.0 | 1.7 | 0.00 | 0.69 | 0.00 | 94 | 1014.0 |
| 20260507043033 | 42 | 37 | 0.0 | 2.6 | 0.00 | 0.69 | 0.00 | 94 | 1013.8 |
| 20260507042533 | 42 | 37 | 0.0 | 3.5 | 0.00 | 0.70 | 0.00 | 93 | 1013.8 |
| 20260507042033 | 42 | 185 | 0.0 | 3.5 | 0.00 | 0.70 | 0.00 | 92 | 1013.8 |
| 20260507041754 | 42 | 129 | 0.0 | 3.5 | 0.00 | 0.71 | 0.00 | 92 | 1013.7 |
| 20260507041258 | 42 | 188 | 0.9 | 3.5 | 0.00 | 0.72 | 0.00 | 91 | 1013.6 |
| 20260507040532 | 42 | 192 | 2.6 | 4.3 | 0.00 | 0.74 | 0.00 | 92 | 1013.7 |
| 20260507040031 | 42 | 198 | 0.9 | 5.2 | 0.00 | 0.74 | 0.00 | 92 | 1014.0 |
| 20260507035531 | 42 | 186 | 2.6 | 5.2 | 0.00 | 0.75 | 0.74 | 93 | 1013.7 |
| 20260507035031 | 42 | 278 | 2.6 | 3.5 | 0.00 | 0.76 | 0.74 | 94 | 1013.8 |
| 20260507034755 | 42 | 224 | 0.0 | 2.6 | 0.00 | 0.77 | 0.74 | 94 | 1013.9 |
| 20260507034031 | 42 | 338 | 1.7 | 3.5 | 0.00 | 0.78 | 0.74 | 94 | 1013.7 |
| 20260507033530 | 42 | 3 | 0.9 | 3.5 | 0.00 | 0.78 | 0.74 | 94 | 1013.5 |
| 20260507033252 | 42 | 244 | 0.9 | 4.3 | 0.00 | 0.79 | 0.74 | 93 | 1013.6 |
| 20260507032530 | 42 | 158 | 1.7 | 4.3 | 0.00 | 0.79 | 0.74 | 93 | 1013.6 |
| 20260507032253 | 42 | 140 | 0.0 | 3.5 | 0.00 | 0.80 | 0.74 | 94 | 1013.6 |
| 20260507031530 | 42 | 207 | 2.6 | 3.5 | 0.00 | 0.81 | 0.74 | 94 | 1013.6 |
| 20260507031030 | 42 | 177 | 1.7 | 3.5 | 0.00 | 0.81 | 0.74 | 94 | 1013.6 |
| 20260507030530 | 42 | 235 | 0.0 | 3.5 | 0.00 | 0.82 | 0.74 | 93 | 1013.5 |
| 20260507030029 | 42 | 212 | 1.7 | 3.5 | 0.00 | 0.83 | 0.74 | 94 | 1013.5 |
| 20260507025529 | 42 | 186 | 0.0 | 3.5 | 0.00 | 0.83 | 0.74 | 94 | 1013.4 |
| 20260507025029 | 43 | 89 | 0.0 | 3.5 | 0.00 | 0.83 | 0.74 | 93 | 1013.5 |
| 20260507024529 | 42 | 164 | 1.7 | 3.5 | 0.00 | 0.83 | 0.74 | 94 | 1013.5 |
| 20260507024029 | 42 | 200 | 0.9 | 3.5 | 0.00 | 0.83 | 0.74 | 94 | 1013.6 |
| 20260507023528 | 42 | 143 | 0.9 | 3.5 | 0.00 | 0.84 | 0.74 | 94 | 1013.3 |
| 20260507023253 | 42 | 208 | 1.7 | 3.5 | 0.00 | 0.84 | 0.74 | 94 | 1013.5 |
| 20260507022528 | 42 | 187 | 1.7 | 3.5 | 0.00 | 0.84 | 0.74 | 94 | 1013.5 |
| 20260507022028 | 42 | 190 | 1.7 | 2.6 | 0.00 | 0.84 | 0.74 | 94 | 1013.5 |
| 20260507021527 | 42 | 187 | 1.7 | 3.5 | 0.00 | 0.84 | 0.74 | 94 | 1013.5 |
| 20260507021027 | 42 | 140 | 0.9 | 4.3 | 0.00 | 0.84 | 0.74 | 94 | 1013.8 |
| 20260507020751 | 42 | 196 | 1.7 | 4.3 | 0.00 | 0.84 | 0.74 | 94 | 1013.7 |
| 20260507020026 | 42 | 197 | 2.6 | 5.2 | 0.00 | 0.84 | 0.74 | 94 | 1013.7 |
| 20260507015526 | 42 | 191 | 1.7 | 7.0 | 0.00 | 0.84 | 0.74 | 94 | 1013.6 |
| 20260507015026 | 42 | 212 | 3.5 | 7.0 | 0.00 | 0.84 | 0.74 | 94 | 1013.8 |
| 20260507014526 | 42 | 184 | 1.7 | 3.5 | 0.00 | 0.84 | 0.74 | 94 | 1013.8 |
| 20260507014026 | 42 | 161 | 0.9 | 3.5 | 0.00 | 0.84 | 0.74 | 94 | 1013.7 |
| 20260507013526 | 42 | 157 | 0.0 | 2.6 | 0.00 | 0.85 | 0.74 | 95 | 1013.7 |
| 20260507013025 | 42 | 129 | 0.0 | 2.6 | 0.00 | 0.85 | 0.74 | 95 | 1013.5 |
| 20260507012526 | 42 | 176 | 1.7 | 3.5 | 0.00 | 0.85 | 0.74 | 95 | 1013.4 |
| 20260507012025 | 42 | 177 | 1.7 | 4.3 | 0.00 | 0.85 | 0.74 | 95 | 1013.2 |
| 20260507011525 | 42 | 204 | 1.7 | 4.3 | 0.00 | 0.85 | 0.74 | 95 | 1013.4 |
| 20260507011024 | 42 | 50 | 0.0 | 3.5 | 0.00 | 0.86 | 0.74 | 95 | 1013.0 |
| 20260507010525 | 42 | 285 | 1.7 | 3.5 | 0.00 | 0.87 | 0.74 | 95 | 1013.5 |
| 20260507010024 | 42 | 316 | 2.6 | 4.3 | 0.00 | 0.87 | 0.74 | 95 | 1013.3 |
| 20260507005524 | 42 | 294 | 0.9 | 4.3 | 0.00 | 0.88 | 0.74 | 96 | 1013.4 |
| 20260507005024 | 42 | 212 | 3.5 | 4.3 | 0.00 | 0.88 | 0.74 | 96 | 1013.5 |
| 20260507004524 | 42 | 357 | 0.9 | 5.2 | 0.00 | 0.88 | 0.74 | 96 | 1013.4 |
| 20260507004024 | 42 | 318 | 2.6 | 8.7 | 0.00 | 0.89 | 0.74 | 96 | 1013.3 |
| 20260507003523 | 42 | 329 | 1.7 | 8.7 | 0.00 | 0.89 | 0.74 | 96 | 1013.2 |
| 20260507003244 | 42 | 335 | 1.7 | 8.7 | 0.00 | 0.89 | 0.74 | 96 | 1013.1 |
| 20260507003004 | 42 | 338 | 3.5 | 7.8 | 0.00 | 0.89 | 0.74 | 95 | 1013.2 |
| 20260507002023 | 42 | 297 | 5.2 | 7.8 | 0.00 | 0.89 | 0.74 | 95 | 1013.1 |
| 20260507001523 | 43 | 280 | 3.5 | 6.1 | 0.00 | 0.89 | 0.74 | 95 | 1013.0 |
| 20260507001022 | 43 | 6 | 1.7 | 6.1 | 0.00 | 0.89 | 0.74 | 95 | 1012.6 |
| 20260507000522 | 43 | 282 | 0.0 | 5.2 | 0.00 | 0.90 | 0.74 | 95 | 1012.8 |
| 20260507000024 | 43 | 347 | 1.7 | 7.8 | 0.00 | 0.90 | 0.74 | 95 | 1012.8 |
| 20260506235522 | 43 | 324 | 0.0 | 7.8 | 0.00 | 0.91 | 0.74 | 95 | 1012.8 |
| 20260506235021 | 43 | 349 | 2.6 | 7.8 | 0.00 | 0.91 | 0.74 | 94 | 1012.6 |
| 20260506234521 | 43 | 353 | 2.6 | 7.8 | 0.00 | 0.91 | 0.74 | 94 | 1012.4 |
| 20260506234021 | 43 | 350 | 1.7 | 7.8 | 0.00 | 0.92 | 0.74 | 94 | 1012.5 |
| 20260506233521 | 43 | 338 | 5.2 | 8.7 | 0.00 | 0.92 | 0.74 | 95 | 1012.3 |
| 20260506233021 | 43 | 289 | 3.5 | 8.7 | 0.00 | 0.92 | 0.74 | 95 | 1012.3 |
| 20260506232520 | 43 | 354 | 4.3 | 9.6 | 0.00 | 0.92 | 0.74 | 95 | 1012.3 |
| 20260506232236 | 43 | 354 | 1.7 | 9.6 | 0.00 | 0.93 | 0.74 | 94 | 1012.3 |
| 20260506231520 | 43 | 297 | 2.6 | 9.6 | 0.00 | 0.94 | 0.74 | 94 | 1012.4 |
| 20260506231241 | 43 | 338 | 6.1 | 8.7 | 0.00 | 0.94 | 0.74 | 94 | 1012.1 |
| 20260506230743 | 43 | 4 | 4.3 | 10.4 | 0.00 | 0.95 | 0.74 | 95 | 1012.2 |
| 20260506230019 | 43 | 334 | 4.3 | 11.3 | 0.00 | 0.97 | 0.74 | 95 | 1012.2 |
| 20260506225519 | 44 | 0 | 2.6 | 14.8 | 0.00 | 0.98 | 0.74 | 95 | 1012.0 |
| 20260506225019 | 44 | 335 | 5.2 | 14.8 | 0.00 | 0.99 | 0.74 | 94 | 1011.8 |
| 20260506224519 | 44 | 348 | 9.6 | 14.8 | 0.00 | 1.00 | 0.74 | 93 | 1011.9 |
| 20260506224018 | 45 | 327 | 10.4 | 15.6 | 0.00 | 1.01 | 0.74 | 94 | 1011.9 |
| 20260506223518 | 45 | 297 | 9.6 | 15.6 | 0.00 | 1.02 | 0.74 | 94 | 1011.4 |
| 20260506223018 | 46 | 250 | 4.3 | 13.9 | 0.00 | 1.03 | 0.74 | 93 | 1011.4 |
| 20260506222518 | 47 | 274 | 6.1 | 13.9 | 0.00 | 1.04 | 0.74 | 92 | 1011.2 |
| 20260506222018 | 47 | 259 | 6.1 | 11.3 | 0.00 | 1.05 | 0.74 | 90 | 1011.2 |
| 20260506221518 | 47 | 288 | 2.6 | 11.3 | 0.00 | 1.05 | 0.74 | 89 | 1011.0 |
| 20260506221018 | 47 | 288 | 6.1 | 20.0 | 0.00 | 1.06 | 0.74 | 89 | 1011.0 |
| 20260506220517 | 48 | 195 | 2.6 | 20.0 | 0.00 | 1.07 | 0.74 | 86 | 1010.9 |
| 20260506220243 | 49 | 247 | 3.5 | 12.2 | 0.00 | 1.07 | 0.74 | 83 | 1010.9 |
| 20260506215517 | 50 | 219 | 3.5 | 13.0 | 0.00 | 1.08 | 0.74 | 80 | 1010.7 |
| 20260506215017 | 50 | 194 | 1.7 | 13.0 | 0.00 | 1.08 | 0.74 | 80 | 1010.6 |
| 20260506214516 | 50 | 200 | 1.7 | 7.0 | 0.00 | 1.10 | 0.74 | 84 | 1010.7 |
| 20260506214016 | 50 | 217 | 6.1 | 7.0 | 0.00 | 1.12 | 0.74 | 85 | 1010.5 |
| 20260506213516 | 49 | 167 | 1.7 | 5.2 | 0.00 | 1.13 | 0.74 | 84 | 1010.2 |
| 20260506213016 | 49 | 206 | 2.6 | 5.2 | 0.00 | 1.15 | 0.74 | 85 | 1010.4 |
| 20260506212515 | 49 | 177 | 2.6 | 5.2 | 0.00 | 1.18 | 0.74 | 86 | 1010.5 |
| 20260506212015 | 49 | 168 | 4.3 | 4.3 | 0.00 | 1.19 | 0.74 | 86 | 1010.3 |
| 20260506211741 | 49 | 179 | 1.7 | 4.3 | 0.00 | 1.20 | 0.74 | 87 | 1010.3 |
| 20260506211015 | 49 | 184 | 3.5 | 4.3 | 0.00 | 1.20 | 0.74 | 86 | 1010.4 |
| 20260506210734 | 49 | 211 | 2.6 | 4.3 | 0.00 | 1.20 | 0.74 | 86 | 1010.4 |
| 20260506210014 | 49 | 169 | 1.7 | 4.3 | 0.00 | 1.20 | 0.74 | 86 | 1010.5 |
| 20260506205514 | 49 | 197 | 2.6 | 4.3 | 0.00 | 1.20 | 0.74 | 85 | 1010.5 |
| 20260506205014 | 49 | 214 | 1.7 | 4.3 | 0.00 | 1.20 | 0.74 | 85 | 1010.4 |
| 20260506204513 | 49 | 129 | 2.6 | 4.3 | 0.00 | 1.20 | 0.74 | 85 | 1010.5 |
| 20260506204013 | 49 | 139 | 0.9 | 3.5 | 0.00 | 1.20 | 0.74 | 85 | 1010.4 |
| 20260506203514 | 49 | 167 | 0.0 | 3.5 | 0.00 | 1.20 | 0.74 | 85 | 1010.5 |
| 20260506203014 | 49 | 126 | 1.7 | 4.3 | 0.00 | 1.20 | 0.74 | 84 | 1010.5 |
| 20260506202513 | 49 | 198 | 1.7 | 5.2 | 0.00 | 1.20 | 0.74 | 87 | 1010.3 |
| 20260506202235 | 48 | 173 | 3.5 | 5.2 | 0.00 | 1.20 | 0.74 | 86 | 1010.5 |
| 20260506201737 | 49 | 151 | 3.5 | 4.3 | 0.00 | 1.20 | 0.74 | 86 | 1010.6 |
| 20260506201012 | 48 | 138 | 1.7 | 5.2 | 0.00 | 1.20 | 0.74 | 86 | 1010.7 |
| 20260506200512 | 49 | 180 | 2.6 | 5.2 | 0.00 | 1.20 | 0.74 | 88 | 1010.7 |
| 20260506200012 | 49 | 232 | 1.7 | 5.2 | 0.00 | 1.20 | 0.74 | 88 | 1010.7 |
| 20260506195511 | 49 | 150 | 2.6 | 5.2 | 0.00 | 1.20 | 0.74 | 85 | 1010.7 |
| 20260506195241 | 49 | 173 | 1.7 | 5.2 | 0.00 | 1.20 | 0.74 | 87 | 1010.6 |
| 20260506194511 | 49 | 184 | 4.3 | 4.3 | 0.00 | 1.20 | 0.74 | 89 | 1010.6 |
| 20260506194011 | 48 | 274 | 0.9 | 2.6 | 0.00 | 1.20 | 0.74 | 90 | 1010.5 |
| 20260506193511 | 48 | 206 | 1.7 | 3.5 | 0.00 | 1.20 | 0.74 | 90 | 1010.8 |
| 20260506193217 | 47 | 133 | 1.7 | 3.5 | 0.00 | 1.20 | 0.74 | 93 | 1010.6 |
| 20260506193101 | 47 | 152 | 1.7 | 3.5 | 0.00 | 1.20 | 0.74 | 91 | 1010.7 |
| 20260506192010 | 46 | 127 | 2.6 | 5.2 | 0.00 | 1.20 | 0.74 | 93 | 1010.5 |
| 20260506191510 | 46 | 81 | 1.7 | 5.2 | 0.00 | 1.20 | 0.74 | 94 | 1010.7 |
| 20260506191010 | 46 | 99 | 0.0 | 6.1 | 0.00 | 1.20 | 0.74 | 96 | 1010.4 |
| 20260506190736 | 45 | 71 | 4.3 | 6.1 | 0.00 | 1.20 | 0.74 | 95 | 1010.4 |
| 20260506190009 | 46 | 47 | 2.6 | 5.2 | 0.00 | 1.20 | 0.74 | 95 | 1010.7 |
| 20260506185509 | 46 | 61 | 2.6 | 4.3 | 0.00 | 1.20 | 0.74 | 95 | 1010.6 |
| 20260506185009 | 45 | 73 | 1.7 | 4.3 | 0.00 | 1.20 | 0.74 | 94 | 1010.7 |
| 20260506184509 | 46 | 105 | 2.6 | 4.3 | 0.00 | 1.20 | 0.74 | 97 | 1010.8 |
| 20260506184009 | 45 | 31 | 1.7 | 4.3 | 0.00 | 1.20 | 0.74 | 96 | 1010.7 |
| 20260506183509 | 45 | 27 | 2.6 | 4.3 | 0.00 | 1.20 | 0.74 | 96 | 1010.9 |
| 20260506183235 | 45 | 6 | 1.7 | 5.2 | 0.00 | 1.20 | 0.74 | 97 | 1010.8 |
| 20260506182509 | 45 | 76 | 1.7 | 5.2 | 0.00 | 1.20 | 0.74 | 96 | 1010.6 |
| 20260506182008 | 45 | 64 | 4.3 | 4.3 | 0.00 | 1.20 | 0.74 | 96 | 1010.8 |
| 20260506181508 | 45 | 355 | 1.7 | 5.2 | 0.00 | 1.20 | 0.74 | 97 | 1010.8 |
| 20260506181007 | 45 | 319 | 1.7 | 5.2 | 0.00 | 1.20 | 0.74 | 96 | 1010.7 |
| 20260506180508 | 45 | 348 | 3.5 | 5.2 | 0.00 | 1.20 | 0.74 | 96 | 1010.8 |
| 20260506180007 | 45 | 351 | 1.7 | 5.2 | 0.00 | 1.20 | 0.74 | 97 | 1010.6 |
| 20260506175507 | 45 | 65 | 2.6 | 5.2 | 0.00 | 1.20 | 0.74 | 96 | 1010.6 |
| 20260506175007 | 45 | 20 | 3.5 | 5.2 | 0.00 | 1.20 | 0.74 | 96 | 1010.7 |
| 20260506174507 | 45 | 37 | 3.5 | 5.2 | 0.00 | 1.20 | 0.74 | 95 | 1010.8 |
| 20260506174006 | 45 | 316 | 0.9 | 2.6 | 0.00 | 1.20 | 0.74 | 93 | 1010.7 |
| 20260506173506 | 45 | 10 | 1.7 | 3.5 | 0.00 | 1.20 | 0.74 | 94 | 1010.5 |
| 20260506173006 | 45 | 310 | 1.7 | 3.5 | 0.00 | 1.20 | 0.74 | 93 | 1010.7 |
| 20260506172506 | 45 | 23 | 1.7 | 3.5 | 0.00 | 1.20 | 0.74 | 94 | 1010.8 |
| 20260506172006 | 45 | 356 | 2.6 | 3.5 | 0.00 | 1.20 | 0.74 | 93 | 1010.6 |
| 20260506171726 | 45 | 6 | 3.5 | 4.3 | 0.00 | 1.20 | 0.74 | 94 | 1010.4 |
| 20260506171006 | 45 | 48 | 1.7 | 4.3 | 0.00 | 1.20 | 0.74 | 93 | 1010.4 |
| 20260506170505 | 45 | 11 | 1.7 | 4.3 | 0.00 | 1.20 | 0.74 | 92 | 1010.5 |
| 20260506170005 | 45 | 342 | 1.7 | 4.3 | 0.00 | 1.20 | 0.74 | 93 | 1010.1 |
| 20260506165505 | 45 | 316 | 2.6 | 4.3 | 0.00 | 1.20 | 0.74 | 92 | 1010.6 |
| 20260506165005 | 45 | 347 | 1.7 | 4.3 | 0.00 | 1.20 | 0.74 | 94 | 1010.2 |
| 20260506164504 | 45 | 13 | 2.6 | 3.5 | 0.00 | 1.20 | 0.74 | 92 | 1010.0 |
| 20260506164004 | 45 | 2 | 0.9 | 5.2 | 0.00 | 1.20 | 0.74 | 93 | 1010.3 |
| 20260506163946 | 45 | 351 | 0.0 | 5.2 | 0.00 | 1.20 | 0.74 | 94 | 1010.2 |
| 20260506163004 | 45 | 61 | 4.3 | 5.2 | 0.00 | 1.20 | 0.74 | 93 | 1010.4 |
| 20260506162503 | 45 | 49 | 1.7 | 5.2 | 0.00 | 1.20 | 0.74 | 92 | 1010.4 |
| 20260506162235 | 45 | 65 | 3.5 | 5.2 | 0.00 | 1.20 | 0.74 | 93 | 1010.2 |
| 20260506161726 | 45 | 349 | 2.6 | 5.2 | 0.00 | 1.20 | 0.74 | 93 | 1010.2 |
| 20260506161443 | 45 | 2 | 0.9 | 4.3 | 0.00 | 1.20 | 0.74 | 95 | 1010.3 |
| 20260506160502 | 45 | 8 | 2.6 | 4.3 | 0.00 | 1.20 | 0.74 | 93 | 1010.2 |
| 20260506160002 | 45 | 64 | 2.6 | 5.2 | 0.00 | 1.20 | 0.74 | 93 | 1010.3 |
| 20260506155503 | 45 | 36 | 2.6 | 5.2 | 0.00 | 1.20 | 0.74 | 93 | 1010.3 |
| 20260506155001 | 45 | 75 | 4.3 | 5.2 | 0.00 | 1.20 | 0.74 | 95 | 1010.1 |
| 20260506154501 | 45 | 64 | 3.5 | 5.2 | 0.00 | 1.20 | 0.74 | 95 | 1010.1 |
| 20260506154002 | 45 | 50 | 3.5 | 5.2 | 0.00 | 1.20 | 0.74 | 95 | 1010.1 |
| 20260506153501 | 45 | 25 | 1.7 | 5.2 | 0.00 | 1.20 | 0.74 | 94 | 1010.1 |
| 20260506153001 | 45 | 31 | 1.7 | 6.1 | 0.00 | 1.20 | 0.74 | 96 | 1010.2 |
| 20260506152500 | 44 | 12 | 3.5 | 6.1 | 0.00 | 1.20 | 0.74 | 95 | 1010.1 |
| 20260506152000 | 44 | 43 | 3.5 | 6.1 | 0.00 | 1.20 | 0.74 | 96 | 1010.3 |
| 20260506151500 | 44 | 54 | 1.7 | 6.1 | 0.01 | 1.20 | 0.74 | 95 | 1010.0 |
| 20260506151000 | 44 | 31 | 1.7 | 6.1 | 0.01 | 1.20 | 0.74 | 96 | 1010.0 |
| 20260506150459 | 44 | 59 | 1.7 | 6.1 | 0.01 | 1.20 | 0.74 | 97 | 1010.0 |
| 20260506150000 | 44 | 35 | 2.6 | 6.1 | 0.01 | 1.20 | 0.74 | 97 | 1009.8 |
| 20260506145459 | 44 | 71 | 3.5 | 6.1 | 0.01 | 1.20 | 0.74 | 97 | 1009.9 |
| 20260506145440 | 44 | 67 | 4.3 | 7.0 | 0.02 | 1.20 | 0.74 | 96 | 1010.1 |
| 20260506144459 | 44 | 48 | 3.5 | 7.0 | 0.02 | 1.20 | 0.74 | 96 | 1009.9 |
| 20260506143959 | 44 | 64 | 3.5 | 6.1 | 0.02 | 1.20 | 0.74 | 96 | 1009.9 |
| 20260506143459 | 44 | 80 | 2.6 | 7.0 | 0.02 | 1.20 | 0.74 | 97 | 1009.8 |
| 20260506142958 | 44 | 49 | 3.5 | 7.0 | 0.02 | 1.20 | 0.74 | 97 | 1009.8 |
| 20260506142458 | 44 | 57 | 6.1 | 6.1 | 0.02 | 1.20 | 0.74 | 97 | 1009.7 |
| 20260506141957 | 44 | 54 | 6.1 | 7.8 | 0.02 | 1.20 | 0.74 | 97 | 1009.6 |
| 20260506141457 | 44 | 124 | 2.6 | 7.8 | 0.02 | 1.20 | 0.73 | 97 | 1009.6 |
| 20260506141226 | 44 | 74 | 4.3 | 5.2 | 0.03 | 1.20 | 0.73 | 97 | 1009.9 |
| 20260506140457 | 44 | 73 | 3.5 | 8.7 | 0.03 | 1.20 | 0.73 | 98 | 1009.8 |
| 20260506135957 | 43 | 67 | 0.0 | 8.7 | 0.04 | 1.19 | 0.73 | 97 | 1009.5 |
| 20260506135456 | 43 | 67 | 5.2 | 7.8 | 0.04 | 1.19 | 0.73 | 98 | 1009.5 |
| 20260506134956 | 44 | 84 | 1.7 | 7.8 | 0.04 | 1.19 | 0.72 | 98 | 1009.5 |
| 20260506134716 | 44 | 75 | 2.6 | 5.2 | 0.04 | 1.19 | 0.72 | 99 | 1009.5 |
| 20260506133956 | 44 | 49 | 1.7 | 6.1 | 0.04 | 1.19 | 0.72 | 99 | 1009.3 |
| 20260506133455 | 44 | 79 | 2.6 | 6.1 | 0.04 | 1.19 | 0.72 | 99 | 1009.4 |
| 20260506132956 | 44 | 82 | 5.2 | 6.1 | 0.04 | 1.18 | 0.72 | 99 | 1009.7 |
| 20260506132456 | 44 | 97 | 1.7 | 7.8 | 0.05 | 1.18 | 0.72 | 98 | 1009.6 |
| 20260506131956 | 43 | 80 | 3.5 | 7.8 | 0.04 | 1.18 | 0.71 | 98 | 1009.7 |
| 20260506131455 | 43 | 54 | 3.5 | 7.0 | 0.04 | 1.17 | 0.71 | 98 | 1009.5 |
| 20260506130955 | 43 | 115 | 3.5 | 9.6 | 0.04 | 1.17 | 0.70 | 98 | 1009.5 |
| 20260506130455 | 43 | 76 | 3.5 | 9.6 | 0.05 | 1.17 | 0.70 | 99 | 1009.1 |
| 20260506125954 | 43 | 67 | 6.1 | 8.7 | 0.04 | 1.16 | 0.69 | 99 | 1009.4 |
| 20260506125454 | 43 | 54 | 5.2 | 7.0 | 0.04 | 1.15 | 0.69 | 99 | 1009.3 |
| 20260506124954 | 43 | 65 | 1.7 | 7.0 | 0.04 | 1.15 | 0.69 | 98 | 1009.4 |
| 20260506124454 | 43 | 81 | 2.6 | 7.8 | 0.04 | 1.15 | 0.68 | 98 | 1009.4 |
| 20260506123954 | 43 | 124 | 1.7 | 7.8 | 0.04 | 1.14 | 0.68 | 98 | 1009.4 |
| 20260506123927 | 43 | 83 | 5.2 | 9.6 | 0.04 | 1.14 | 0.67 | 98 | 1009.3 |
| 20260506123545 | 43 | 88 | 2.6 | 9.6 | 0.04 | 1.14 | 0.68 | 98 | 1009.3 |
| 20260506122453 | 43 | 70 | 3.5 | 8.7 | 0.04 | 1.13 | 0.67 | 99 | 1009.1 |
| 20260506121952 | 43 | 70 | 2.6 | 8.7 | 0.04 | 1.13 | 0.67 | 99 | 1009.2 |
| 20260506121452 | 43 | 65 | 2.6 | 8.7 | 0.04 | 1.13 | 0.66 | 98 | 1008.9 |
| 20260506120953 | 43 | 59 | 5.2 | 8.7 | 0.04 | 1.13 | 0.66 | 98 | 1009.0 |
| 20260506120715 | 43 | 63 | 6.1 | 9.6 | 0.04 | 1.12 | 0.65 | 99 | 1009.2 |
| 20260506115952 | 43 | 59 | 2.6 | 9.6 | 0.05 | 1.12 | 0.65 | 99 | 1008.7 |
| 20260506115451 | 43 | 75 | 4.3 | 10.4 | 0.04 | 1.11 | 0.65 | 99 | 1009.1 |